Location: Beutels
(47.8767°N, 9.8584°E)
Time: 20:43:57
(UTC+00:00)

SWAS - Pass Details

Date: 19 May 2025
Orbit: 545 x 550 km, 69.9° (Epoch: 15 June)

Event Time Altitude Azimuth Distance (km) Brightness Sun altitude
Rises 19:29:09 0° 205° (SSW) 2,711 7.7 -5.2°
Reaches altitude 10° 19:31:20 10° 204° (SSW) 1,821 6.8 -5.5°
Maximum altitude 19:35:24 81° 118° (ESE) 563 4.3 -6.0°
Drops below altitude 10° 19:39:29 10° 31° (NNE) 1,832 7.1 -6.5°
Sets 19:41:41 0° 31° (NNE) 2,729 8.0 -6.8°
